[[{"header":{"parameterUnit":"m.s-1","parameterCategory":1,"la1":30.2992,"la2":30.254,"lo1":-89.0895,"lo2":-89.0443,"dy":0.0025,"dx":0.0025,"nx":19,"ny":19,"refTime":"2026-04-03T21:00:00:Z","depth":0,"parameterNumber":2,"parameterNumberName":"U-component_of_WINDS"},"data":[0,0,0,-4.6889,-4.6893,-4.7029,-4.703,-4.7214,-4.7216,0,0,0,0,0,0,0,0,0,0,0,-4.6855,-4.6856,-4.6889,-4.6893,-4.7029,-4.703,-4.7214,-4.7216,0,0,0,0,0,0,0,0,0,0,0,-4.6854,-4.6856,-4.6857,-4.6893,-4.7029,-4.703,-4.7213,-4.7107,0,0,0,0,0,0,0,0,0,0,-4.6972,-4.6946,-4.6855,-4.6858,-4.6894,-4.7029,-4.703,-4.7101,-4.7113,-4.7156,0,-4.7196,0,-4.7209,-4.7229,-4.7229,0,0,0,-4.6888,-4.6936,-4.6968,-4.6858,-4.6896,-4.7029,-4.6967,-4.7108,-4.7122,-4.7172,-4.7198,-4.7205,-4.7212,-4.723,-4.7231,-4.7492,-4.7494,0,0,-4.6881,-4.6882,-4.6958,-4.6977,-4.6957,-4.6962,-4.6971,-4.7116,-4.7145,-4.7199,-4.7209,-4.7215,-4.7231,-4.7233,-4.7491,-4.7493,0,0,0,-4.6862,-4.6877,-4.6905,-4.6969,-4.6993,-4.6966,-4.6976,-4.7138,-4.7147,-4.7211,-4.7217,-4.7232,-4.7235,-4.7489,-4.7491,-4.7562,0,0,0,-4.6857,-4.6866,-4.6902,-4.6904,-4.6991,-4.7068,-4.6995,-4.7137,-4.7153,-4.7216,-4.7232,-4.7237,-4.7488,-4.749,-4.7557,-4.7595,0,0,0,-4.6844,-4.6864,-4.6886,-4.6904,-4.6963,-4.7065,-4.7082,-4.7141,-4.7158,-4.7229,-4.7237,-4.7487,-4.749,-4.7552,-4.7587,-4.7663,0,0,0,-4.6829,-4.6947,-4.6887,-4.7022,-4.6962,-4.7109,-4.7081,-4.7191,-4.7261,-4.7233,-4.7488,-4.7491,-4.7551,-4.7582,-4.7658,-4.7726,-4.7755,0,0,-4.6978,-4.6965,-4.7044,-4.6995,-4.7152,-4.7088,-4.7256,-4.7319,-4.7325,-4.7436,-4.7442,-4.7559,-4.7586,-4.7662,-4.792,-4.7943,0,0,0,-4.7092,-4.7148,-4.719,-4.7257,-4.7309,-4.7356,-4.7393,-4.7417,-4.7512,-4.7382,-4.7608,-4.7624,-4.7668,-4.7701,-4.772,-4.7757,-4.7507,-4.7506,-4.7506,-4.7302,-4.7304,-4.7435,-4.7454,-4.752,-4.7558,-4.7611,-4.765,-4.7632,-4.7686,-4.7717,-4.7874,-4.7912,-4.7926,-4.7965,-4.7755,-4.7756,-4.7756,-4.7756,-4.7519,-4.7599,-4.7575,-4.7692,-4.7694,-4.7793,-4.7835,-4.7819,-4.7911,-4.785,-4.7889,-4.7819,-4.7952,-4.7986,-4.7762,-4.7761,-4.776,-4.7759,-4.7759,-4.7656,-4.7694,-4.7722,-4.782,-4.7896,-4.7912,-4.8001,-4.8,-4.7999,-4.8038,-4.8072,-4.807,-4.8068,-4.8055,-4.8056,-4.8056,-4.8057,-4.8057,-4.8057,-4.7785,-4.7814,-4.789,-4.7956,-4.8,-4.8057,-4.8099,-4.8141,-4.8188,-4.818,-4.818,-4.8157,-4.7965,-4.7916,-4.8066,-4.8064,-4.8063,-4.8062,-4.8062,-4.8,-4.7952,-4.8069,-4.8113,-4.8191,-4.8266,-4.8264,-4.8352,-4.8387,-4.8432,-4.8401,-4.8261,-4.8246,-4.8231,-4.8189,-4.8401,-4.8401,-4.8401,-4.8401,-4.8113,-4.8107,-4.8227,-4.8297,-4.8366,-4.8377,-4.8509,-4.8543,-4.8571,-4.8593,-4.8563,-4.8509,-4.8494,-4.8488,-4.8467,-4.8429,-4.8697,-4.8697,-4.8697,-4.8245,-4.8246,-4.8358,-4.8385,-4.8447,-4.8499,-4.8624,-4.8705,-4.8727,-4.8709,-4.861,-4.8597,-4.8511,-4.8483,-4.846,-4.8427,-4.8356,0,0]},{"header":{"parameterUnit":"m.s-1","parameterCategory":1,"la1":30.2992,"la2":30.254,"lo1":-89.0895,"lo2":-89.0443,"dy":0.0025,"dx":0.0025,"nx":19,"ny":19,"refTime":"2026-04-03T21:00:00:Z","depth":0,"parameterNumber":3,"parameterNumberName":"V-component_of_WINDS"},"data":[0,0,0,2.8768,2.877,2.8857,2.8858,2.8965,2.8966,0,0,0,0,0,0,0,0,0,0,0,2.874,2.8741,2.8768,2.877,2.8857,2.8858,2.8965,2.8966,0,0,0,0,0,0,0,0,0,0,0,2.874,2.874,2.8741,2.877,2.8857,2.8858,2.8964,2.89,0,0,0,0,0,0,0,0,0,0,2.8816,2.8788,2.874,2.8741,2.8771,2.8857,2.8858,2.8897,2.8904,2.8924,0,2.8941,0,2.8955,2.8973,2.8973,0,0,0,2.8771,2.8782,2.8808,2.8741,2.8772,2.8857,2.8818,2.8901,2.8909,2.8933,2.8943,2.8947,2.8957,2.8973,2.8974,2.9087,2.9087,0,0,2.8766,2.8754,2.8802,2.8813,2.88,2.8815,2.8821,2.8906,2.8915,2.8943,2.8949,2.8959,2.8974,2.8975,2.9086,2.9087,0,0,0,2.8752,2.8751,2.8775,2.8808,2.8825,2.8818,2.8824,2.8911,2.892,2.8951,2.896,2.8975,2.8976,2.9086,2.9086,2.9099,0,0,0,2.8749,2.8742,2.8772,2.8766,2.8823,2.8869,2.8828,2.8914,2.8924,2.896,2.8975,2.8977,2.9085,2.9086,2.9097,2.9106,0,0,0,2.8735,2.8741,2.8753,2.8765,2.8802,2.8868,2.8882,2.8917,2.893,2.8973,2.8977,2.9085,2.9086,2.9096,2.9104,2.9133,0,0,0,2.8716,2.8761,2.8753,2.8806,2.8801,2.8876,2.8882,2.8937,2.8975,2.8975,2.9085,2.9086,2.9096,2.9103,2.9132,2.9155,2.9164,0,0,2.8765,2.8766,2.8799,2.8794,2.8867,2.8863,2.8938,2.8983,2.8998,2.9056,2.9059,2.9098,2.9104,2.9133,2.9218,2.9224,0,0,0,2.881,2.8834,2.8856,2.8893,2.893,2.8963,2.8999,2.9017,2.9068,2.9026,2.9117,2.9121,2.9138,2.915,2.9156,2.9172,2.9091,2.9091,2.9091,2.8861,2.888,2.8935,2.8965,2.9001,2.9039,2.907,2.91,2.9106,2.9127,2.9144,2.9194,2.9207,2.9212,2.9228,2.9158,2.9158,2.9158,2.9158,2.8935,2.8971,2.8982,2.9039,2.9058,2.9107,2.9146,2.9149,2.9197,2.9182,2.9198,2.9179,2.9219,2.9234,2.916,2.9159,2.9159,2.9159,2.9159,2.897,2.8991,2.9013,2.907,2.9112,2.9141,2.9187,2.9202,2.9217,2.9233,2.9253,2.9253,2.9255,2.9242,2.9242,2.9242,2.9242,2.9242,2.9243,2.8998,2.9022,2.906,2.9106,2.9133,2.9171,2.9212,2.9239,2.9272,2.928,2.928,2.9284,2.9219,2.9203,2.9245,2.9245,2.9244,2.9244,2.9244,2.9065,2.9053,2.9111,2.9139,2.9195,2.9237,2.9257,2.9311,2.9335,2.9358,2.936,2.9309,2.931,2.9306,2.9292,2.9355,2.9355,2.9356,2.9356,2.9095,2.9098,2.9162,2.9205,2.9249,2.9274,2.934,2.9373,2.9405,2.9421,2.9415,2.9398,2.9393,2.9397,2.9391,2.9378,2.9462,2.9462,2.9462,2.9138,2.9146,2.9199,2.9232,2.9278,2.9317,2.9379,2.9428,2.9462,2.9467,2.9435,2.943,2.9404,2.9394,2.9396,2.9386,2.9363,0,0]}]]